Data supplied by UK-AIR on 15/3/2023
All Data GMT hour ending 
Status: R =Ratified P=Provisional,P*=As supplied
,,Nottingham Western Boulevard,,,,,,,,,,,,,,,,,,,,,,,
Date,time,"PM<sub>10</sub> particulate matter (Hourly measured)",status,unit,"Nitric oxide",status,unit,"Nitrogen dioxide",status,unit,"Nitrogen oxides as nitrogen dioxide",status,unit
 
01-01-2022,01:00,19.324,R,ugm-3 (Ref.eq),0.69255,R,ugm-3,7.28594,R,ugm-3,8.34784,R,ugm-3
01-01-2022,02:00,10.628,R,ugm-3 (Ref.eq),0.34628,R,ugm-3,5.64777,R,ugm-3,6.17872,R,ugm-3
01-01-2022,03:00,13.527,R,ugm-3 (Ref.eq),0.45449,R,ugm-3,4.57805,R,ugm-3,5.27492,R,ugm-3
01-01-2022,04:00,13.527,R,ugm-3 (Ref.eq),1.00637,R,ugm-3,4.47132,R,ugm-3,6.01439,R,ugm-3
01-01-2022,05:00,18.358,R,ugm-3 (Ref.eq),0.42202,R,ugm-3,3.88835,R,ugm-3,4.53544,R,ugm-3
01-01-2022,06:00,19.324,R,ugm-3 (Ref.eq),0.61681,R,ugm-3,3.58969,R,ugm-3,4.53544,R,ugm-3
01-01-2022,07:00,13.527,R,ugm-3 (Ref.eq),0.64927,R,ugm-3,5.21606,R,ugm-3,6.21159,R,ugm-3
01-01-2022,08:00,14.493,R,ugm-3 (Ref.eq),0.51941,R,ugm-3,4.28130,R,ugm-3,5.07772,R,ugm-3
01-01-2022,09:00,6.763,R,ugm-3 (Ref.eq),0.77912,R,ugm-3,5.21414,R,ugm-3,6.40878,R,ugm-3
01-01-2022,10:00,17.392,R,ugm-3 (Ref.eq),1.20115,R,ugm-3,4.96143,R,ugm-3,6.80316,R,ugm-3
01-01-2022,11:00,16.425,R,ugm-3 (Ref.eq),1.81795,R,ugm-3,6.43129,R,ugm-3,9.21878,R,ugm-3
01-01-2022,12:00,16.425,R,ugm-3 (Ref.eq),3.11649,R,ugm-3,8.38410,R,ugm-3,13.16265,R,ugm-3
01-01-2022,13:00,20.290,R,ugm-3 (Ref.eq),3.66837,R,ugm-3,10.49579,R,ugm-3,16.12054,R,ugm-3
01-01-2022,14:00,22.223,R,ugm-3 (Ref.eq),3.05156,R,ugm-3,9.17383,R,ugm-3,13.85282,R,ugm-3
01-01-2022,15:00,27.054,R,ugm-3 (Ref.eq),5.09676,R,ugm-3,13.28475,R,ugm-3,21.09967,R,ugm-3
01-01-2022,16:00,25.121,R,ugm-3 (Ref.eq),6.62254,R,ugm-3,14.79052,R,ugm-3,24.94494,R,ugm-3
01-01-2022,17:00,28.020,R,ugm-3 (Ref.eq),11.91407,R,ugm-3,24.27644,R,ugm-3,42.54443,R,ugm-3
01-01-2022,18:00,28.986,R,ugm-3 (Ref.eq),14.70593,R,ugm-3,31.67935,R,ugm-3,54.22813,R,ugm-3
01-01-2022,19:00,32.851,R,ugm-3 (Ref.eq),17.66010,R,ugm-3,39.72075,R,ugm-3,66.79919,R,ugm-3
01-01-2022,20:00,27.054,R,ugm-3 (Ref.eq),4.28517,R,ugm-3,18.62092,R,ugm-3,25.19143,R,ugm-3
01-01-2022,21:00,28.020,R,ugm-3 (Ref.eq),1.81795,R,ugm-3,12.34709,R,ugm-3,15.13458,R,ugm-3
01-01-2022,22:00,28.986,R,ugm-3 (Ref.eq),2.66200,R,ugm-3,10.95430,R,ugm-3,15.03598,R,ugm-3
01-01-2022,23:00,31.885,R,ugm-3 (Ref.eq),3.60344,R,ugm-3,13.01096,R,ugm-3,18.53616,R,ugm-3
01-01-2022,24:00,28.020,R,ugm-3 (Ref.eq),3.24634,R,ugm-3,10.84710,R,ugm-3,15.82475,R,ugm-3
02-01-2022,01:00,25.121,R,ugm-3 (Ref.eq),2.98903,R,ugm-3,10.57815,R,ugm-3,15.16125,R,ugm-3
02-01-2022,02:00,27.054,R,ugm-3 (Ref.eq),2.07932,R,ugm-3,10.39781,R,ugm-3,13.58606,R,ugm-3
02-01-2022,03:00,23.189,R,ugm-3 (Ref.eq),1.88439,R,ugm-3,11.28741,R,ugm-3,14.17676,R,ugm-3
02-01-2022,04:00,22.223,R,ugm-3 (Ref.eq),0.48734,R,ugm-3,8.16245,R,ugm-3,8.90970,R,ugm-3
02-01-2022,05:00,14.493,R,ugm-3 (Ref.eq),2.04683,R,ugm-3,8.87243,R,ugm-3,12.01086,R,ugm-3
02-01-2022,06:00,7.730,R,ugm-3 (Ref.eq),2.40422,R,ugm-3,6.10933,R,ugm-3,9.79575,R,ugm-3
02-01-2022,07:00,7.730,R,ugm-3 (Ref.eq),2.66413,R,ugm-3,6.35072,R,ugm-3,10.43567,R,ugm-3
02-01-2022,08:00,6.763,R,ugm-3 (Ref.eq),4.38607,R,ugm-3,11.88178,R,ugm-3,18.60699,R,ugm-3
02-01-2022,09:00,4.831,R,ugm-3 (Ref.eq),4.54852,R,ugm-3,11.78037,R,ugm-3,18.75467,R,ugm-3
02-01-2022,10:00,5.797,R,ugm-3 (Ref.eq),9.03206,R,ugm-3,18.29487,R,ugm-3,32.14383,R,ugm-3
02-01-2022,11:00,6.763,R,ugm-3 (Ref.eq),9.61686,R,ugm-3,20.84391,R,ugm-3,35.58957,R,ugm-3
02-01-2022,12:00,9.662,R,ugm-3 (Ref.eq),12.08606,R,ugm-3,20.40516,R,ugm-3,38.93686,R,ugm-3
02-01-2022,13:00,15.459,R,ugm-3 (Ref.eq),11.76117,R,ugm-3,18.29440,R,ugm-3,36.32794,R,ugm-3
02-01-2022,14:00,17.392,R,ugm-3 (Ref.eq),11.63121,R,ugm-3,20.80724,R,ugm-3,38.64151,R,ugm-3
02-01-2022,15:00,12.561,R,ugm-3 (Ref.eq),14.26285,R,ugm-3,22.92522,R,ugm-3,44.79461,R,ugm-3
02-01-2022,16:00,10.628,R,ugm-3 (Ref.eq),9.45442,R,ugm-3,19.51780,R,ugm-3,34.01437,R,ugm-3
02-01-2022,17:00,9.662,R,ugm-3 (Ref.eq),20.01347,R,ugm-3,41.32905,R,ugm-3,72.01595,R,ugm-3
02-01-2022,18:00,11.594,R,ugm-3 (Ref.eq),16.63458,R,ugm-3,45.18089,R,ugm-3,70.68688,R,ugm-3
02-01-2022,19:00,16.425,R,ugm-3 (Ref.eq),10.75399,R,ugm-3,29.78213,R,ugm-3,46.27136,R,ugm-3
02-01-2022,20:00,14.493,R,ugm-3 (Ref.eq),9.68184,R,ugm-3,21.97490,R,ugm-3,36.82019,R,ugm-3
02-01-2022,21:00,14.493,R,ugm-3 (Ref.eq),8.12235,R,ugm-3,15.16104,R,ugm-3,27.61514,R,ugm-3
02-01-2022,22:00,15.459,R,ugm-3 (Ref.eq),6.27046,R,ugm-3,10.41995,R,ugm-3,20.03451,R,ugm-3
02-01-2022,23:00,16.425,R,ugm-3 (Ref.eq),4.80843,R,ugm-3,10.34812,R,ugm-3,17.72095,R,ugm-3
02-01-2022,24:00,16.425,R,ugm-3 (Ref.eq),3.50886,R,ugm-3,10.37178,R,ugm-3,15.75195,R,ugm-3
03-01-2022,01:00,13.527,R,ugm-3 (Ref.eq),2.86136,R,ugm-3,6.09828,R,ugm-3,10.48563,R,ugm-3
03-01-2022,02:00,15.459,R,ugm-3 (Ref.eq),0.69366,R,ugm-3,3.19619,R,ugm-3,4.25979,R,ugm-3
03-01-2022,03:00,17.392,R,ugm-3 (Ref.eq),0.48773,R,ugm-3,2.69275,R,ugm-3,3.44060,R,ugm-3
03-01-2022,04:00,12.561,R,ugm-3 (Ref.eq),0.74785,R,ugm-3,2.58881,R,ugm-3,3.73551,R,ugm-3
03-01-2022,05:00,15.459,R,ugm-3 (Ref.eq),2.04847,R,ugm-3,3.69110,R,ugm-3,6.83205,R,ugm-3
03-01-2022,06:00,14.493,R,ugm-3 (Ref.eq),3.15399,R,ugm-3,6.81283,R,ugm-3,11.64888,R,ugm-3
03-01-2022,07:00,9.662,R,ugm-3 (Ref.eq),3.73927,R,ugm-3,7.43911,R,ugm-3,13.17258,R,ugm-3
03-01-2022,08:00,6.763,R,ugm-3 (Ref.eq),6.56811,R,ugm-3,13.27596,R,ugm-3,23.34692,R,ugm-3
03-01-2022,09:00,6.763,R,ugm-3 (Ref.eq),6.17792,R,ugm-3,14.75896,R,ugm-3,24.23164,R,ugm-3
03-01-2022,10:00,10.628,R,ugm-3 (Ref.eq),12.48591,R,ugm-3,22.68305,R,ugm-3,41.82784,R,ugm-3
03-01-2022,11:00,13.527,R,ugm-3 (Ref.eq),10.14480,R,ugm-3,13.24758,R,ugm-3,28.80272,R,ugm-3
03-01-2022,12:00,10.628,R,ugm-3 (Ref.eq),9.88468,R,ugm-3,13.15491,R,ugm-3,28.31121,R,ugm-3
03-01-2022,13:00,11.594,R,ugm-3 (Ref.eq),11.28284,R,ugm-3,15.63132,R,ugm-3,32.93144,R,ugm-3
03-01-2022,14:00,13.527,R,ugm-3 (Ref.eq),11.77057,R,ugm-3,15.66990,R,ugm-3,33.71786,R,ugm-3
03-01-2022,15:00,13.527,R,ugm-3 (Ref.eq),14.56690,R,ugm-3,22.14642,R,ugm-3,44.48202,R,ugm-3
03-01-2022,16:00,74.397,R,ugm-3 (Ref.eq),19.37917,R,ugm-3,32.21645,R,ugm-3,61.93076,R,ugm-3
03-01-2022,17:00,17.392,R,ugm-3 (Ref.eq),20.15954,R,ugm-3,38.83497,R,ugm-3,69.74584,R,ugm-3
03-01-2022,18:00,16.425,R,ugm-3 (Ref.eq),19.31414,R,ugm-3,39.19736,R,ugm-3,68.81196,R,ugm-3
03-01-2022,19:00,14.493,R,ugm-3 (Ref.eq),14.79450,R,ugm-3,36.78861,R,ugm-3,59.47319,R,ugm-3
03-01-2022,20:00,15.459,R,ugm-3 (Ref.eq),17.75340,R,ugm-3,36.92107,R,ugm-3,64.14258,R,ugm-3
03-01-2022,21:00,18.358,R,ugm-3 (Ref.eq),11.02272,R,ugm-3,26.05706,R,ugm-3,42.95832,R,ugm-3
03-01-2022,22:00,15.459,R,ugm-3 (Ref.eq),10.63253,R,ugm-3,24.39437,R,ugm-3,40.69736,R,ugm-3
03-01-2022,23:00,16.425,R,ugm-3 (Ref.eq),6.63314,R,ugm-3,20.30320,R,ugm-3,30.47387,R,ugm-3
03-01-2022,24:00,14.493,R,ugm-3 (Ref.eq),7.86872,R,ugm-3,20.96453,R,ugm-3,33.02974,R,ugm-3
04-01-2022,01:00,15.459,R,ugm-3 (Ref.eq),5.77067,R,ugm-3,25.24458,R,ugm-3,34.09282,R,ugm-3
04-01-2022,02:00,9.662,R,ugm-3 (Ref.eq),5.72728,R,ugm-3,24.00236,R,ugm-3,32.78407,R,ugm-3
04-01-2022,03:00,7.730,R,ugm-3 (Ref.eq),5.01137,R,ugm-3,18.91625,R,ugm-3,26.60025,R,ugm-3
04-01-2022,04:00,5.797,R,ugm-3 (Ref.eq),1.20403,R,ugm-3,6.00632,R,ugm-3,7.85247,R,ugm-3
04-01-2022,05:00,2.899,R,ugm-3 (Ref.eq),2.11519,R,ugm-3,3.97121,R,ugm-3,7.21446,R,ugm-3
04-01-2022,06:00,1.932,R,ugm-3 (Ref.eq),7.54960,R,ugm-3,9.67486,R,ugm-3,21.25075,R,ugm-3
04-01-2022,07:00,7.730,R,ugm-3 (Ref.eq),26.35852,R,ugm-3,33.39742,R,ugm-3,73.81324,R,ugm-3
04-01-2022,08:00,6.763,R,ugm-3 (Ref.eq),49.91847,R,ugm-3,54.84109,R,ugm-3,131.38168,R,ugm-3
04-01-2022,09:00,12.561,R,ugm-3 (Ref.eq),80.40974,R,ugm-3,71.34994,R,ugm-3,194.64316,R,ugm-3
04-01-2022,10:00,11.594,R,ugm-3 (Ref.eq),52.42416,R,ugm-3,56.10320,R,ugm-3,136.48579,R,ugm-3
04-01-2022,11:00,20.290,R,ugm-3 (Ref.eq),43.83324,R,ugm-3,46.89622,R,ugm-3,114.10624,R,ugm-3
04-01-2022,12:00,43.479,R,ugm-3 (Ref.eq),30.71906,R,ugm-3,28.96893,R,ugm-3,76.07083,R,ugm-3
04-01-2022,13:00,13.527,R,ugm-3 (Ref.eq),30.19840,R,ugm-3,31.28868,R,ugm-3,77.59224,R,ugm-3
04-01-2022,14:00,15.459,R,ugm-3 (Ref.eq),26.39106,R,ugm-3,26.28029,R,ugm-3,66.74602,R,ugm-3
04-01-2022,15:00,22.223,R,ugm-3 (Ref.eq),25.64261,R,ugm-3,37.58704,R,ugm-3,76.90515,R,ugm-3
04-01-2022,16:00,26.087,R,ugm-3 (Ref.eq),31.43497,R,ugm-3,41.80935,R,ugm-3,90.00897,R,ugm-3
04-01-2022,17:00,27.054,R,ugm-3 (Ref.eq),33.68033,R,ugm-3,43.61786,R,ugm-3,95.26031,R,ugm-3
04-01-2022,18:00,24.155,R,ugm-3 (Ref.eq),29.02691,R,ugm-3,32.74139,R,ugm-3,77.24870,R,ugm-3
04-01-2022,19:00,33.817,R,ugm-3 (Ref.eq),16.62864,R,ugm-3,25.64233,R,ugm-3,51.13923,R,ugm-3
04-01-2022,20:00,20.290,R,ugm-3 (Ref.eq),11.64981,R,ugm-3,20.56524,R,ugm-3,38.42804,R,ugm-3
04-01-2022,21:00,9.662,R,ugm-3 (Ref.eq),7.54960,R,ugm-3,16.05500,R,ugm-3,27.63089,R,ugm-3
04-01-2022,22:00,10.628,R,ugm-3 (Ref.eq),7.94010,R,ugm-3,14.81823,R,ugm-3,26.99287,R,ugm-3
04-01-2022,23:00,14.493,R,ugm-3 (Ref.eq),5.79237,R,ugm-3,14.38145,R,ugm-3,23.26295,R,ugm-3
04-01-2022,24:00,10.628,R,ugm-3 (Ref.eq),2.96127,R,ugm-3,6.30569,R,ugm-3,10.84623,R,ugm-3
05-01-2022,01:00,10.628,R,ugm-3 (Ref.eq),3.30016,R,ugm-3,8.92245,R,ugm-3,13.98262,R,ugm-3
05-01-2022,02:00,13.527,R,ugm-3 (Ref.eq),1.99747,R,ugm-3,4.58197,R,ugm-3,7.64470,R,ugm-3
05-01-2022,03:00,8.696,R,ugm-3 (Ref.eq),1.04216,R,ugm-3,2.46942,R,ugm-3,4.06738,R,ugm-3
05-01-2022,04:00,15.459,R,ugm-3 (Ref.eq),1.17243,R,ugm-3,3.34778,R,ugm-3,5.14547,R,ugm-3
05-01-2022,05:00,11.594,R,ugm-3 (Ref.eq),2.37742,R,ugm-3,4.04839,R,ugm-3,7.69371,R,ugm-3
05-01-2022,06:00,14.493,R,ugm-3 (Ref.eq),8.17441,R,ugm-3,13.24245,R,ugm-3,25.77637,R,ugm-3
05-01-2022,07:00,13.527,R,ugm-3 (Ref.eq),14.32964,R,ugm-3,17.03578,R,ugm-3,39.00759,R,ugm-3
05-01-2022,08:00,16.425,R,ugm-3 (Ref.eq),37.41990,R,ugm-3,31.17476,R,ugm-3,88.55114,R,ugm-3
05-01-2022,09:00,17.392,R,ugm-3 (Ref.eq),23.22053,R,ugm-3,31.38484,R,ugm-3,66.98916,R,ugm-3
05-01-2022,10:00,19.324,R,ugm-3 (Ref.eq),24.26269,R,ugm-3,32.92318,R,ugm-3,70.12545,R,ugm-3
05-01-2022,11:00,26.087,R,ugm-3 (Ref.eq),25.59795,R,ugm-3,31.51287,R,ugm-3,70.76251,R,ugm-3
05-01-2022,12:00,33.817,R,ugm-3 (Ref.eq),24.06728,R,ugm-3,27.88131,R,ugm-3,64.78396,R,ugm-3
05-01-2022,13:00,26.087,R,ugm-3 (Ref.eq),25.50025,R,ugm-3,32.83878,R,ugm-3,71.93862,R,ugm-3
05-01-2022,14:00,21.256,R,ugm-3 (Ref.eq),29.01752,R,ugm-3,32.44416,R,ugm-3,76.93708,R,ugm-3
05-01-2022,15:00,18.358,R,ugm-3 (Ref.eq),21.39676,R,ugm-3,26.04651,R,ugm-3,58.85441,R,ugm-3
05-01-2022,16:00,25.121,R,ugm-3 (Ref.eq),38.46206,R,ugm-3,40.89685,R,ugm-3,99.87118,R,ugm-3
05-01-2022,17:00,28.986,R,ugm-3 (Ref.eq),56.56951,R,ugm-3,51.50301,R,ugm-3,138.24171,R,ugm-3
05-01-2022,18:00,33.817,R,ugm-3 (Ref.eq),65.33013,R,ugm-3,68.74706,R,ugm-3,168.91853,R,ugm-3
05-01-2022,19:00,77.296,R,ugm-3 (Ref.eq),74.22102,R,ugm-3,72.95219,R,ugm-3,186.75617,R,ugm-3
05-01-2022,20:00,39.614,R,ugm-3 (Ref.eq),155.57430,R,ugm-3,83.95473,R,ugm-3,322.49866,R,ugm-3
05-01-2022,21:00,28.020,R,ugm-3 (Ref.eq),111.08728,R,ugm-3,75.62217,R,ugm-3,245.95362,R,ugm-3
05-01-2022,22:00,31.885,R,ugm-3 (Ref.eq),131.89782,R,ugm-3,70.95962,R,ugm-3,273.20012,R,ugm-3
05-01-2022,23:00,31.885,R,ugm-3 (Ref.eq),112.09686,R,ugm-3,61.13696,R,ugm-3,233.01643,R,ugm-3
05-01-2022,24:00,32.851,R,ugm-3 (Ref.eq),110.63133,R,ugm-3,53.19114,R,ugm-3,222.82349,R,ugm-3
06-01-2022,01:00,29.952,R,ugm-3 (Ref.eq),74.05209,R,ugm-3,45.77457,R,ugm-3,159.31953,R,ugm-3
06-01-2022,02:00,25.121,R,ugm-3 (Ref.eq),53.14889,R,ugm-3,45.40072,R,ugm-3,126.89455,R,ugm-3
06-01-2022,03:00,24.155,R,ugm-3 (Ref.eq),64.01334,R,ugm-3,41.93720,R,ugm-3,140.08962,R,ugm-3
06-01-2022,04:00,21.256,R,ugm-3 (Ref.eq),65.15411,R,ugm-3,37.39898,R,ugm-3,137.30055,R,ugm-3
06-01-2022,05:00,24.155,R,ugm-3 (Ref.eq),53.35531,R,ugm-3,36.16244,R,ugm-3,117.97278,R,ugm-3
06-01-2022,06:00,28.020,R,ugm-3 (Ref.eq),114.63081,R,ugm-3,47.70335,R,ugm-3,223.46815,R,ugm-3
06-01-2022,07:00,27.054,R,ugm-3 (Ref.eq),156.61105,R,ugm-3,62.40715,R,ugm-3,302.54074,R,ugm-3
06-01-2022,08:00,34.783,R,ugm-3 (Ref.eq),241.25598,R,ugm-3,78.23890,R,ugm-3,448.15957,R,ugm-3
06-01-2022,09:00,28.986,R,ugm-3 (Ref.eq),153.74283,R,ugm-3,70.37698,R,ugm-3,306.11271,R,ugm-3
06-01-2022,10:00,19.324,R,ugm-3 (Ref.eq),38.23200,R,ugm-3,57.05144,R,ugm-3,115.67302,R,ugm-3
06-01-2022,11:00,13.527,R,ugm-3 (Ref.eq),22.42423,R,ugm-3,54.67120,R,ugm-3,89.05453,R,ugm-3
06-01-2022,12:00,13.527,R,ugm-3 (Ref.eq),11.66842,R,ugm-3,44.20219,R,ugm-3,62.09351,R,ugm-3
06-01-2022,13:00,11.594,R,ugm-3 (Ref.eq),10.07135,R,ugm-3,31.92275,R,ugm-3,47.36527,R,ugm-3
06-01-2022,14:00,9.662,R,ugm-3 (Ref.eq),9.84319,R,ugm-3,28.84741,R,ugm-3,43.94009,R,ugm-3
06-01-2022,15:00,8.696,R,ugm-3 (Ref.eq),7.17054,R,ugm-3,28.54163,R,ugm-3,39.53630,R,ugm-3
06-01-2022,16:00,8.696,R,ugm-3 (Ref.eq),9.51726,R,ugm-3,33.40844,R,ugm-3,48.00137,R,ugm-3
06-01-2022,17:00,10.628,R,ugm-3 (Ref.eq),10.10394,R,ugm-3,33.29178,R,ugm-3,48.78427,R,ugm-3
06-01-2022,18:00,12.561,R,ugm-3 (Ref.eq),6.25792,R,ugm-3,25.97753,R,ugm-3,35.57288,R,ugm-3
06-01-2022,19:00,7.730,R,ugm-3 (Ref.eq),13.85217,R,ugm-3,28.27853,R,ugm-3,49.51823,R,ugm-3
06-01-2022,20:00,4.831,R,ugm-3 (Ref.eq),11.01655,R,ugm-3,27.43973,R,ugm-3,44.33154,R,ugm-3
06-01-2022,21:00,10.628,R,ugm-3 (Ref.eq),7.98537,R,ugm-3,23.86706,R,ugm-3,36.11112,R,ugm-3
06-01-2022,22:00,11.594,R,ugm-3 (Ref.eq),9.94097,R,ugm-3,23.70651,R,ugm-3,38.94912,R,ugm-3
06-01-2022,23:00,6.763,R,ugm-3 (Ref.eq),6.97498,R,ugm-3,15.23865,R,ugm-3,25.93346,R,ugm-3
06-01-2022,24:00,2.899,R,ugm-3 (Ref.eq),4.66085,R,ugm-3,12.23016,R,ugm-3,19.37670,R,ugm-3
07-01-2022,01:00,7.730,R,ugm-3 (Ref.eq),3.87083,R,ugm-3,10.48097,R,ugm-3,16.41616,R,ugm-3
07-01-2022,02:00,6.763,R,ugm-3 (Ref.eq),2.34859,R,ugm-3,6.82183,R,ugm-3,10.42296,R,ugm-3
07-01-2022,03:00,9.662,R,ugm-3 (Ref.eq),2.57693,R,ugm-3,6.60201,R,ugm-3,10.55324,R,ugm-3
07-01-2022,04:00,9.662,R,ugm-3 (Ref.eq),1.50049,R,ugm-3,6.68908,R,ugm-3,8.98980,R,ugm-3
07-01-2022,05:00,10.628,R,ugm-3 (Ref.eq),3.94694,R,ugm-3,10.95056,R,ugm-3,17.00245,R,ugm-3
07-01-2022,06:00,8.696,R,ugm-3 (Ref.eq),10.86224,R,ugm-3,20.03687,R,ugm-3,36.69207,R,ugm-3
07-01-2022,07:00,9.662,R,ugm-3 (Ref.eq),19.37589,R,ugm-3,31.26502,R,ugm-3,60.97430,R,ugm-3
07-01-2022,08:00,9.662,R,ugm-3 (Ref.eq),45.83017,R,ugm-3,48.30548,R,ugm-3,118.57743,R,ugm-3
07-01-2022,09:00,7.730,R,ugm-3 (Ref.eq),37.77319,R,ugm-3,47.07692,R,ugm-3,104.99501,R,ugm-3
07-01-2022,10:00,6.763,R,ugm-3 (Ref.eq),27.20453,R,ugm-3,35.87286,R,ugm-3,77.58589,R,ugm-3
07-01-2022,11:00,6.763,R,ugm-3 (Ref.eq),25.37784,R,ugm-3,30.90538,R,ugm-3,69.81753,R,ugm-3
07-01-2022,12:00,13.527,R,ugm-3 (Ref.eq),18.46255,R,ugm-3,23.13823,R,ugm-3,51.44707,R,ugm-3
07-01-2022,13:00,30.918,R,ugm-3 (Ref.eq),17.54920,R,ugm-3,22.04693,R,ugm-3,48.95533,R,ugm-3
07-01-2022,14:00,36.716,R,ugm-3 (Ref.eq),30.85789,R,ugm-3,33.15371,R,ugm-3,80.46849,R,ugm-3
07-01-2022,15:00,36.716,R,ugm-3 (Ref.eq),39.50202,R,ugm-3,43.44894,R,ugm-3,104.01786,R,ugm-3
07-01-2022,16:00,24.155,R,ugm-3 (Ref.eq),41.75275,R,ugm-3,47.66851,R,ugm-3,111.68850,R,ugm-3
07-01-2022,17:00,10.628,R,ugm-3 (Ref.eq),61.38959,R,ugm-3,68.95732,R,ugm-3,163.08671,R,ugm-3
07-01-2022,18:00,15.459,R,ugm-3 (Ref.eq),77.63402,R,ugm-3,83.91735,R,ugm-3,202.95452,R,ugm-3
07-01-2022,19:00,17.392,R,ugm-3 (Ref.eq),55.28978,R,ugm-3,79.43396,R,ugm-3,164.21043,R,ugm-3
07-01-2022,20:00,18.358,R,ugm-3 (Ref.eq),48.47233,R,ugm-3,62.57582,R,ugm-3,136.89903,R,ugm-3
07-01-2022,21:00,13.527,R,ugm-3 (Ref.eq),18.26683,R,ugm-3,39.61019,R,ugm-3,67.61894,R,ugm-3
07-01-2022,22:00,10.628,R,ugm-3 (Ref.eq),18.85398,R,ugm-3,31.86984,R,ugm-3,60.77887,R,ugm-3
07-01-2022,23:00,16.425,R,ugm-3 (Ref.eq),29.32478,R,ugm-3,49.23344,R,ugm-3,94.19748,R,ugm-3
07-01-2022,24:00,8.696,R,ugm-3 (Ref.eq),8.31793,R,ugm-3,32.29274,R,ugm-3,45.04672,R,ugm-3
08-01-2022,01:00,10.628,R,ugm-3 (Ref.eq),9.79360,R,ugm-3,27.00279,R,ugm-3,42.01943,R,ugm-3
08-01-2022,02:00,7.730,R,ugm-3 (Ref.eq),3.83039,R,ugm-3,26.71465,R,ugm-3,32.58782,R,ugm-3
08-01-2022,03:00,6.763,R,ugm-3 (Ref.eq),2.61163,R,ugm-3,23.85132,R,ugm-3,27.85576,R,ugm-3
08-01-2022,04:00,5.797,R,ugm-3 (Ref.eq),1.07730,R,ugm-3,18.98387,R,ugm-3,20.63570,R,ugm-3
08-01-2022,05:00,5.797,R,ugm-3 (Ref.eq),0.94671,R,ugm-3,20.69640,R,ugm-3,22.14801,R,ugm-3
08-01-2022,06:00,6.763,R,ugm-3 (Ref.eq),8.65101,R,ugm-3,25.51871,R,ugm-3,38.78341,R,ugm-3
08-01-2022,07:00,7.730,R,ugm-3 (Ref.eq),3.65628,R,ugm-3,16.20031,R,ugm-3,21.80652,R,ugm-3
08-01-2022,08:00,4.831,R,ugm-3 (Ref.eq),2.61163,R,ugm-3,15.02139,R,ugm-3,19.02582,R,ugm-3
08-01-2022,09:00,8.696,R,ugm-3 (Ref.eq),2.25253,R,ugm-3,11.18142,R,ugm-3,14.63525,R,ugm-3
08-01-2022,10:00,5.797,R,ugm-3 (Ref.eq),4.73357,R,ugm-3,17.28039,R,ugm-3,24.53844,R,ugm-3
08-01-2022,11:00,3.865,R,ugm-3 (Ref.eq),8.45514,R,ugm-3,22.11145,R,ugm-3,35.07581,R,ugm-3
08-01-2022,12:00,3.865,R,ugm-3 (Ref.eq),9.49979,R,ugm-3,24.50998,R,ugm-3,39.07612,R,ugm-3
08-01-2022,13:00,7.730,R,ugm-3 (Ref.eq),18.54254,R,ugm-3,29.37773,R,ugm-3,57.80924,R,ugm-3
08-01-2022,14:00,11.594,R,ugm-3 (Ref.eq),23.14553,R,ugm-3,35.97948,R,ugm-3,71.46880,R,ugm-3
08-01-2022,15:00,15.459,R,ugm-3 (Ref.eq),30.19692,R,ugm-3,44.77873,R,ugm-3,91.08004,R,ugm-3
08-01-2022,16:00,23.189,R,ugm-3 (Ref.eq),23.70051,R,ugm-3,33.81136,R,ugm-3,70.15163,R,ugm-3
08-01-2022,17:00,24.155,R,ugm-3 (Ref.eq),20.33804,R,ugm-3,33.45447,R,ugm-3,64.63902,R,ugm-3
08-01-2022,18:00,24.155,R,ugm-3 (Ref.eq),17.85699,R,ugm-3,32.18513,R,ugm-3,59.56547,R,ugm-3
08-01-2022,19:00,13.527,R,ugm-3 (Ref.eq),10.93618,R,ugm-3,19.77076,R,ugm-3,36.53934,R,ugm-3
08-01-2022,20:00,16.425,R,ugm-3 (Ref.eq),9.79360,R,ugm-3,18.35173,R,ugm-3,33.36837,R,ugm-3
08-01-2022,21:00,5.797,R,ugm-3 (Ref.eq),5.28854,R,ugm-3,10.96562,R,ugm-3,19.07461,R,ugm-3
08-01-2022,22:00,6.763,R,ugm-3 (Ref.eq),3.68892,R,ugm-3,7.32032,R,ugm-3,12.97659,R,ugm-3
08-01-2022,23:00,10.628,R,ugm-3 (Ref.eq),4.24389,R,ugm-3,10.46968,R,ugm-3,16.97689,R,ugm-3
08-01-2022,24:00,10.628,R,ugm-3 (Ref.eq),3.52570,R,ugm-3,8.10722,R,ugm-3,13.51321,R,ugm-3
09-01-2022,01:00,10.628,R,ugm-3 (Ref.eq),1.43754,R,ugm-3,4.55036,R,ugm-3,6.75455,R,ugm-3
09-01-2022,02:00,11.594,R,ugm-3 (Ref.eq),1.21973,R,ugm-3,3.19569,R,ugm-3,5.06591,R,ugm-3
09-01-2022,03:00,13.527,R,ugm-3 (Ref.eq),1.27418,R,ugm-3,5.25547,R,ugm-3,7.20919,R,ugm-3
09-01-2022,04:00,10.628,R,ugm-3 (Ref.eq),0.98014,R,ugm-3,4.58598,R,ugm-3,6.08884,R,ugm-3
09-01-2022,05:00,9.662,R,ugm-3 (Ref.eq),1.82959,R,ugm-3,6.15744,R,ugm-3,8.96277,R,ugm-3
09-01-2022,06:00,7.730,R,ugm-3 (Ref.eq),3.16912,R,ugm-3,7.65941,R,ugm-3,12.51866,R,ugm-3
09-01-2022,07:00,5.797,R,ugm-3 (Ref.eq),9.34400,R,ugm-3,18.45506,R,ugm-3,32.78231,R,ugm-3
09-01-2022,08:00,12.561,R,ugm-3 (Ref.eq),8.00447,R,ugm-3,16.51468,R,ugm-3,28.78803,R,ugm-3
09-01-2022,09:00,9.662,R,ugm-3 (Ref.eq),10.38948,R,ugm-3,27.37352,R,ugm-3,43.30383,R,ugm-3
09-01-2022,10:00,11.594,R,ugm-3 (Ref.eq),18.06723,R,ugm-3,40.00519,R,ugm-3,67.70790,R,ugm-3
09-01-2022,11:00,12.561,R,ugm-3 (Ref.eq),24.27478,R,ugm-3,45.29514,R,ugm-3,82.51596,R,ugm-3
09-01-2022,12:00,16.425,R,ugm-3 (Ref.eq),21.85711,R,ugm-3,38.87037,R,ugm-3,72.38413,R,ugm-3
09-01-2022,13:00,11.594,R,ugm-3 (Ref.eq),18.72066,R,ugm-3,26.58205,R,ugm-3,55.28667,R,ugm-3
09-01-2022,14:00,14.493,R,ugm-3 (Ref.eq),24.43814,R,ugm-3,32.86699,R,ugm-3,70.33828,R,ugm-3
09-01-2022,15:00,16.425,R,ugm-3 (Ref.eq),21.00765,R,ugm-3,29.40777,R,ugm-3,61.61906,R,ugm-3
09-01-2022,16:00,21.256,R,ugm-3 (Ref.eq),32.18124,R,ugm-3,46.66495,R,ugm-3,96.00883,R,ugm-3
09-01-2022,17:00,16.425,R,ugm-3 (Ref.eq),26.98650,R,ugm-3,40.94239,R,ugm-3,82.32111,R,ugm-3
09-01-2022,18:00,14.493,R,ugm-3 (Ref.eq),20.02751,R,ugm-3,46.01096,R,ugm-3,76.71938,R,ugm-3
09-01-2022,19:00,15.459,R,ugm-3 (Ref.eq),18.29593,R,ugm-3,32.83502,R,ugm-3,60.88840,R,ugm-3
09-01-2022,20:00,16.425,R,ugm-3 (Ref.eq),32.08323,R,ugm-3,55.68058,R,ugm-3,104.87418,R,ugm-3
09-01-2022,21:00,17.392,R,ugm-3 (Ref.eq),22.73923,R,ugm-3,48.18544,R,ugm-3,83.05177,R,ugm-3
09-01-2022,22:00,18.358,R,ugm-3 (Ref.eq),20.15820,R,ugm-3,49.36646,R,ugm-3,80.27526,R,ugm-3
09-01-2022,23:00,19.324,R,ugm-3 (Ref.eq),25.28759,R,ugm-3,51.19493,R,ugm-3,89.96870,R,ugm-3
09-01-2022,24:00,18.358,R,ugm-3 (Ref.eq),33.45542,R,ugm-3,52.35881,R,ugm-3,103.65641,R,ugm-3
10-01-2022,01:00,18.358,R,ugm-3 (Ref.eq),11.02989,R,ugm-3,44.69495,R,ugm-3,61.60721,R,ugm-3
10-01-2022,02:00,21.256,R,ugm-3 (Ref.eq),2.96456,R,ugm-3,34.10483,R,ugm-3,38.65042,R,ugm-3
10-01-2022,03:00,12.561,R,ugm-3 (Ref.eq),5.62394,R,ugm-3,46.23960,R,ugm-3,54.86284,R,ugm-3
10-01-2022,04:00,19.324,R,ugm-3 (Ref.eq),8.89366,R,ugm-3,44.38750,R,ugm-3,58.02427,R,ugm-3
10-01-2022,05:00,21.256,R,ugm-3 (Ref.eq),16.28325,R,ugm-3,43.65988,R,ugm-3,68.62719,R,ugm-3
10-01-2022,06:00,23.189,R,ugm-3 (Ref.eq),47.01871,R,ugm-3,50.61748,R,ugm-3,122.71184,R,ugm-3
10-01-2022,07:00,23.189,R,ugm-3 (Ref.eq),54.08133,R,ugm-3,54.47674,R,ugm-3,137.40029,R,ugm-3
10-01-2022,08:00,24.155,R,ugm-3 (Ref.eq),109.69943,R,ugm-3,64.37999,R,ugm-3,232.58343,R,ugm-3
10-01-2022,09:00,28.020,R,ugm-3 (Ref.eq),145.96073,R,ugm-3,70.74398,R,ugm-3,294.54731,R,ugm-3
10-01-2022,10:00,30.918,R,ugm-3 (Ref.eq),156.26038,R,ugm-3,65.60297,R,ugm-3,305.19888,R,ugm-3
10-01-2022,11:00,28.986,R,ugm-3 (Ref.eq),88.21730,R,ugm-3,64.53726,R,ugm-3,199.80191,R,ugm-3
10-01-2022,12:00,28.986,R,ugm-3 (Ref.eq),27.59652,R,ugm-3,57.05187,R,ugm-3,99.36594,R,ugm-3
10-01-2022,13:00,22.223,R,ugm-3 (Ref.eq),14.81188,R,ugm-3,47.52100,R,ugm-3,70.23222,R,ugm-3
10-01-2022,14:00,19.324,R,ugm-3 (Ref.eq),11.37866,R,ugm-3,40.47996,R,ugm-3,57.92699,R,ugm-3
10-01-2022,15:00,24.155,R,ugm-3 (Ref.eq),12.62116,R,ugm-3,42.75763,R,ugm-3,62.10980,R,ugm-3
10-01-2022,16:00,18.358,R,ugm-3 (Ref.eq),8.37051,R,ugm-3,34.14900,R,ugm-3,46.98360,R,ugm-3
10-01-2022,17:00,19.324,R,ugm-3 (Ref.eq),12.35958,R,ugm-3,44.61782,R,ugm-3,63.56891,R,ugm-3
10-01-2022,18:00,22.223,R,ugm-3 (Ref.eq),20.99166,R,ugm-3,53.56074,R,ugm-3,85.74751,R,ugm-3
10-01-2022,19:00,25.121,R,ugm-3 (Ref.eq),9.54761,R,ugm-3,42.80115,R,ugm-3,57.44062,R,ugm-3
10-01-2022,20:00,24.155,R,ugm-3 (Ref.eq),6.99722,R,ugm-3,39.07564,R,ugm-3,49.80457,R,ugm-3
10-01-2022,21:00,25.121,R,ugm-3 (Ref.eq),6.50676,R,ugm-3,35.30440,R,ugm-3,45.28130,R,ugm-3
10-01-2022,22:00,20.290,R,ugm-3 (Ref.eq),4.28335,R,ugm-3,28.11067,R,ugm-3,34.67837,R,ugm-3
10-01-2022,23:00,22.223,R,ugm-3 (Ref.eq),3.17164,R,ugm-3,24.12470,R,ugm-3,28.98781,R,ugm-3
10-01-2022,24:00,15.459,R,ugm-3 (Ref.eq),1.27520,R,ugm-3,16.52689,R,ugm-3,18.48216,R,ugm-3
11-01-2022,01:00,13.527,R,ugm-3 (Ref.eq),0.74173,R,ugm-3,15.30965,R,ugm-3,16.44695,R,ugm-3
11-01-2022,02:00,10.628,R,ugm-3 (Ref.eq),0.74173,R,ugm-3,12.26632,R,ugm-3,13.40362,R,ugm-3
11-01-2022,03:00,6.763,R,ugm-3 (Ref.eq),1.17804,R,ugm-3,9.41194,R,ugm-3,11.21824,R,ugm-3
11-01-2022,04:00,8.696,R,ugm-3 (Ref.eq),0.45813,R,ugm-3,8.47611,R,ugm-3,9.17856,R,ugm-3
11-01-2022,05:00,6.763,R,ugm-3 (Ref.eq),3.10871,R,ugm-3,11.79364,R,ugm-3,16.56027,R,ugm-3
11-01-2022,06:00,8.696,R,ugm-3 (Ref.eq),18.61955,R,ugm-3,25.93904,R,ugm-3,54.48861,R,ugm-3
11-01-2022,07:00,18.358,R,ugm-3 (Ref.eq),80.82651,R,ugm-3,51.14033,R,ugm-3,175.07259,R,ugm-3
11-01-2022,08:00,24.155,R,ugm-3 (Ref.eq),153.76670,R,ugm-3,60.27274,R,ugm-3,296.04507,R,ugm-3
11-01-2022,09:00,17.392,R,ugm-3 (Ref.eq),124.64298,R,ugm-3,71.95366,R,ugm-3,263.07023,R,ugm-3
11-01-2022,10:00,18.358,R,ugm-3 (Ref.eq),53.89525,R,ugm-3,55.57442,R,ugm-3,138.21264,R,ugm-3
11-01-2022,11:00,,,,,,,,,,,,
11-01-2022,12:00,24.155,R,ugm-3 (Ref.eq),49.73939,R,ugm-3,52.39576,R,ugm-3,128.66176,R,ugm-3
11-01-2022,13:00,31.885,R,ugm-3 (Ref.eq),35.53748,R,ugm-3,42.73473,R,ugm-3,97.22478,R,ugm-3
11-01-2022,14:00,41.547,R,ugm-3 (Ref.eq),35.11208,R,ugm-3,45.13530,R,ugm-3,98.97307,R,ugm-3
11-01-2022,15:00,56.040,R,ugm-3 (Ref.eq),66.78822,R,ugm-3,55.91089,R,ugm-3,158.31807,R,ugm-3
11-01-2022,16:00,58.938,R,ugm-3 (Ref.eq),83.73888,R,ugm-3,68.81986,R,ugm-3,197.21769,R,ugm-3
11-01-2022,17:00,52.175,R,ugm-3 (Ref.eq),104.64906,R,ugm-3,84.20489,R,ugm-3,244.66454,R,ugm-3
11-01-2022,18:00,35.749,R,ugm-3 (Ref.eq),100.16597,R,ugm-3,75.73270,R,ugm-3,229.31838,R,ugm-3
11-01-2022,19:00,34.783,R,ugm-3 (Ref.eq),79.41941,R,ugm-3,67.62419,R,ugm-3,189.39891,R,ugm-3